GW4764 Weather Reports


Display with metric or nautical units.
time (UTC)temp
F
wind
direction
speed
MPH
gust
MPH
rain 1hr
in
rain 24hr
in
rain mn
in
humidity
%
barometer
mb
20260506154519 48 49 1.0 7.0 0.00 0.00 0.00 61 1012.6
20260506153003 48 231 1.0 5.0 0.00 0.01 0.00 57 1012.4
20260506151507 48 36 3.0 8.0 0.00 0.01 0.00 59 1012.4
20260506150010 48 311 2.0 6.0 0.00 0.01 0.00 62 1012.4
20260506144515 47 26 3.0 5.0 0.00 0.01 0.00 62 1012.3
20260506143026 46 44 1.0 4.0 0.00 0.01 0.00 63 1011.9
20260506141504 46 339 2.0 4.0 0.00 0.01 0.00 65 1011.8
20260506140006 45 25 1.0 4.0 0.00 0.01 0.00 68 1011.7
20260506134513 45 333 1.0 6.0 0.00 0.01 0.00 69 1011.7
20260506133016 44 336 1.0 6.0 0.00 0.01 0.00 70 1011.6
20260506131521 44 30 3.0 7.0 0.00 0.01 0.00 71 1011.5
20260506130010 44 13 2.0 7.0 0.00 0.01 0.00 71 1011.3
20260506124510 43 309 2.0 7.0 0.00 0.01 0.00 72 1011.0
20260506123019 44 29 3.0 8.0 0.00 0.01 0.00 76 1010.8
20260506121518 44 11 1.0 3.0 0.00 0.01 0.00 81 1010.4
20260506120035 42 330 0.0 2.0 0.00 0.01 0.00 84 1010.3
20260506114510 40 5 0.0 3.0 0.00 0.01 0.00 88 1010.3
20260506113011 38 276 0.0 0.0 0.00 0.01 0.00 88 1009.8
20260506111515 37 276 0.0 0.0 0.00 0.01 0.00 86 1009.9
20260506110026 37 276 0.0 0.0 0.00 0.01 0.00 85 1009.5
20260506104526 38 276 0.0 0.0 0.00 0.01 0.00 82 1009.4
20260506103023 39 276 0.0 0.0 0.00 0.01 0.00 81 1009.1
20260506101515 41 276 0.0 0.0 0.00 0.01 0.00 78 1009.2
20260506100022 42 276 0.0 2.0 0.00 0.01 0.00 75 1009.3
20260506094532 43 307 0.0 3.0 0.00 0.01 0.00 72 1008.7
20260506093040 43 360 0.0 3.0 0.00 0.01 0.00 71 1008.4
20260506091512 43 291 0.0 2.0 0.00 0.01 0.00 71 1008.7
20260506090017 42 312 0.0 2.0 0.00 0.01 0.00 72 1008.5
20260506084520 42 312 0.0 2.0 0.00 0.01 0.00 74 1008.3
20260506083023 42 312 0.0 1.0 0.00 0.01 0.00 70 1008.2
20260506081508 42 309 0.0 0.0 0.00 0.01 0.00 71 1008.5
20260506073004 44 309 0.0 0.0 0.00 0.01 0.00 66 1008.4
20260506071507 45 337 0.0 2.0 0.00 0.01 0.00 63 1008.3
20260506061504 46 299 1.0 3.0 0.00 0.01 0.00 60 1008.6
20260506044518 46 300 0.0 2.0 0.00 0.02 0.00 59 1008.3
20260506043018 46 288 0.0 2.0 0.00 0.02 0.00 60 1008.1
20260506041524 47 268 1.0 2.0 0.00 0.02 0.00 58 1008.1
20260506040024 47 282 0.0 2.0 0.00 0.02 0.00 59 1008.2
20260506034510 47 244 0.0 2.0 0.00 0.02 0.02 59 1008.3
20260506033013 47 263 0.0 2.0 0.00 0.02 0.02 60 1008.1
20260506031521 46 248 0.0 2.0 0.00 0.02 0.02 63 1008.2
20260506030022 46 248 0.0 2.0 0.00 0.02 0.02 61 1008.3
20260506024532 47 234 0.0 2.0 0.00 0.02 0.02 61 1008.2
20260506023011 47 236 0.0 2.0 0.00 0.02 0.02 63 1008.3
20260506021518 47 230 0.0 1.0 0.00 0.02 0.02 62 1008.1
20260506020022 47 223 0.0 2.0 0.00 0.02 0.02 59 1008.2
20260506014526 48 241 0.0 2.0 0.00 0.02 0.02 60 1007.9
20260506013027 48 286 0.0 2.0 0.00 0.02 0.02 54 1007.7
20260506011517 49 228 0.0 2.0 0.00 0.02 0.02 59 1007.8
20260506010019 49 259 0.0 2.0 0.00 0.02 0.02 51 1007.6
20260506004524 50 246 0.0 5.0 0.00 0.02 0.02 50 1007.7
20260506003026 50 263 2.0 5.0 0.00 0.02 0.02 49 1007.7
20260506001526 50 273 2.0 8.0 0.00 0.02 0.02 49 1007.6
20260506000015 50 326 2.0 4.0 0.00 0.02 0.02 48 1007.5
20260505234546 51 208 2.0 4.0 0.00 0.02 0.02 49 1007.2
20260505233026 51 249 1.0 5.0 0.00 0.02 0.02 46 1007.1
20260505231531 52 219 0.0 8.0 0.00 0.02 0.02 48 1007.1
20260505230005 52 253 1.0 4.0 0.00 0.02 0.02 47 1007.0
20260505224504 52 244 3.0 8.0 0.00 0.02 0.02 45 1007.1
20260505223009 52 263 3.0 8.0 0.00 0.02 0.02 47 1007.2
20260505221505 53 269 4.0 8.0 0.00 0.02 0.02 52 1007.1
20260505220008 53 244 4.0 8.0 0.00 0.02 0.02 52 1007.1
20260505214504 53 256 3.0 10.0 0.00 0.02 0.02 54 1007.1
20260505213007 53 298 4.0 10.0 0.00 0.02 0.02 53 1007.1
20260505211505 53 347 4.0 9.0 0.00 0.02 0.02 58 1007.1
20260505210008 53 208 4.0 10.0 0.00 0.02 0.02 60 1007.2
20260505204508 53 287 3.0 8.0 0.00 0.02 0.02 64 1007.2
20260505203008 53 250 3.0 8.0 0.00 0.02 0.02 62 1007.1
20260505201505 53 333 2.0 8.0 0.00 0.02 0.02 59 1007.2
20260505200012 53 242 2.0 10.0 0.00 0.02 0.02 61 1007.1
20260505194510 53 254 3.0 8.0 0.00 0.02 0.02 66 1007.1
20260505193009 53 261 4.0 10.0 0.00 0.02 0.02 66 1007.3
20260505191510 53 250 3.0 11.0 0.00 0.02 0.02 64 1007.3
20260505190005 54 232 6.0 11.0 0.00 0.02 0.02 64 1007.2
20260505184517 54 238 2.0 8.0 0.00 0.02 0.02 63 1007.2
20260505183029 54 249 4.0 14.0 0.00 0.02 0.02 62 1007.1
20260505181512 55 244 5.0 10.0 0.00 0.02 0.02 63 1006.8
20260505180011 54 265 3.0 9.0 0.00 0.02 0.02 60 1006.7
20260505174511 54 244 3.0 10.0 0.00 0.02 0.02 63 1006.5
20260505173020 53 254 3.0 10.0 0.00 0.02 0.02 67 1006.4
20260505171514 53 322 2.0 9.0 0.00 0.02 0.02 68 1006.6
20260505170014 53 173 3.0 10.0 0.00 0.02 0.02 72 1006.3
20260505164514 52 315 4.0 9.0 0.00 0.02 0.02 74 1006.5
20260505163010 51 237 4.0 10.0 0.01 0.02 0.02 77 1006.6
20260505161514 50 270 4.0 8.0 0.01 0.02 0.02 78 1006.6